Fairfield, OH

2:25 AM EST on January 21, 2017 (GMT -0500)
Hamilton

Weather History for KHAO - December, 2012

Change the Weather History Date:

Tuesday, December 11, 2012

  Actual Average (KLUK) Record (KLUK)
Temperature  
Mean Temperature 28 °F -  
Max Temperature 35 °F 45 °F 69 °F (2007)
Min Temperature 21 °F 28 °F 5 °F (1977)
Degree Days  
Heating Degree Days 37    
Moisture  
Dew Point 24 °F    
Average Humidity 74    
Maximum Humidity 88    
Minimum Humidity 59    
Precipitation  
Precipitation 0.00 in - - ()
Sea Level Pressure  
Sea Level Pressure 30.14 in    
Wind  
Wind Speed 6 mph (WSW)    
Max Wind Speed 9 mph    
Max Gust Speed -    
Visibility 10 miles    
Events      
Averages and records for this station are not official NWS values.
T = Trace of Precipitation, MM = Missing Value Source: NWS Daily Summary

Daily Weather History Graph

Daily Weather History Graph

Search for Another Location

Airport or City:

Trip Planner

Search our weather history database for the weather conditions in past years. The results will help you decide how hot, cold, wet, or windy it might be!

Date:

Astronomy

Dec. 11, 2012 Rise Set
Actual Time 7:48 AM EST 5:14 PM EST
Civil Twilight 7:18 AM EST 5:44 PM EST
Nautical Twilight 6:44 AM EST 6:18 PM EST
Astronomical Twilight 6:11 AM EST 6:51 PM EST
Moon 5:42 AM EST (12/11) 3:53 PM EST (12/11)
Length of Visible Light 10h 26m
Length of Day
9h 26m
Waning Crescent, 4% of the Moon is Illuminated
Dec 11
Waning Crescent
Dec 13
New
Dec 20
First Quarter
Dec 28
Full
Jan 4
Last Quarter

Hourly Weather History & Observations

Time (EST) Temp. Windchill Dew Point Humidity Pressure Visibility Wind Dir Wind Speed Gust Speed Precip Events Conditions
12:53 AM 33.1 °F 26.9 °F 28.0 °F 82% 29.98 in 8.0 mi West 6.9 mph - N/A   Overcast
1:53 AM 34.0 °F 28.8 °F 28.0 °F 79% 29.98 in 9.0 mi West 5.8 mph - N/A   Overcast
2:53 AM 34.0 °F 31.0 °F 28.0 °F 79% 30.00 in 8.0 mi West 3.5 mph - N/A   Overcast
3:11 AM 33.8 °F 27.7 °F 28.4 °F 81% 29.99 in 8.0 mi West 6.9 mph - N/A   Overcast
3:53 AM 34.0 °F 28.0 °F 27.0 °F 75% 30.02 in 10.0 mi West 6.9 mph - N/A   Overcast
4:53 AM 34.0 °F 28.0 °F 27.0 °F 75% 30.04 in 10.0 mi West 6.9 mph - N/A   Overcast
5:53 AM 34.0 °F 28.0 °F 27.0 °F 75% 30.05 in 9.0 mi WNW 6.9 mph - N/A   Overcast
6:53 AM 33.1 °F 26.1 °F 27.0 °F 78% 30.06 in 9.0 mi West 8.1 mph - N/A   Overcast
7:53 AM 33.1 °F 26.1 °F 25.0 °F 72% 30.10 in 10.0 mi West 8.1 mph - N/A   Overcast
8:53 AM 33.1 °F 27.7 °F 25.0 °F 72% 30.12 in 10.0 mi Variable 5.8 mph - N/A   Overcast
9:53 AM 33.1 °F 26.9 °F 24.1 °F 70% 30.15 in 10.0 mi West 6.9 mph - N/A   Overcast
10:53 AM 33.1 °F 25.5 °F 25.0 °F 72% 30.17 in 10.0 mi WSW 9.2 mph - N/A   Overcast
11:53 AM 33.1 °F 26.1 °F 24.1 °F 70% 30.18 in 10.0 mi WSW 8.1 mph - N/A   Overcast
12:53 PM 34.0 °F 29.8 °F 23.0 °F 64% 30.17 in 10.0 mi West 4.6 mph - N/A   Overcast
1:07 PM 33.8 °F 29.6 °F 24.8 °F 70% 30.15 in 10.0 mi Variable 4.6 mph - N/A   Overcast
1:53 PM 35.1 °F 30.1 °F 24.1 °F 64% 30.17 in 10.0 mi WSW 5.8 mph - N/A   Overcast
2:53 PM 35.1 °F 31.0 °F 21.9 °F 59% 30.16 in 10.0 mi SSW 4.6 mph - N/A   Overcast
3:53 PM 35.1 °F 30.1 °F 21.9 °F 59% 30.18 in 10.0 mi SW 5.8 mph - N/A   Mostly Cloudy
4:53 PM 33.1 °F 28.7 °F 21.9 °F 64% 30.19 in 10.0 mi WSW 4.6 mph - N/A   Partly Cloudy
5:53 PM 30.9 °F 27.5 °F 21.0 °F 67% 30.20 in 10.0 mi SW 3.5 mph - N/A   Clear
6:53 PM 27.0 °F - 21.0 °F 78% 30.22 in 10.0 mi Calm Calm - N/A   Clear
7:53 PM 28.0 °F - 21.0 °F 75% 30.22 in 10.0 mi Calm Calm - N/A   Clear
8:53 PM 25.0 °F - 21.0 °F 85% 30.24 in 10.0 mi Calm Calm - N/A   Clear
9:53 PM 23.0 °F - 19.9 °F 88% 30.25 in 10.0 mi Calm Calm - N/A   Clear
10:53 PM 21.0 °F - 18.0 °F 88% 30.27 in 9.0 mi Calm Calm - N/A   Clear
11:53 PM 21.0 °F - 18.0 °F 88% 30.29 in 9.0 mi Calm Calm - N/A   Clear